Total_Precipitation_Accumulation
0.00 0.00 0.00 0.00 0.00 0.00 0.00 0.00 0.00 0.00 0.00 0.00 0.00 0.00 0.00 0.00 0.00 0.00 0.05 0.27 0.64 0.65 0.39 0.44 0.31 0.16 0.07 0.04 0.03 0.01 0.00 0.00 0.00 0.00 0.00 0.00 0.00 0.00 0.00 0.00 0.00 0.00 0.00
0.00 0.00 0.00 0.00 0.00 0.00 0.00 0.00 0.00 0.00 0.00 0.00 0.00 0.00 0.00 0.00 0.00 0.01 0.01 0.07 0.14 0.31 0.48 0.29 0.33 0.27 0.13 0.08 0.08 0.03 0.00 0.00 0.00 0.00 0.00 0.00 0.00 0.00 0.00 0.00 0.00 0.00 0.00
0.00 0.00 0.00 0.00 0.00 0.00 0.00 0.00 0.00 0.00 0.00 0.00 0.00 0.00 0.01 0.01 0.01 0.01 0.02 0.01 0.11 0.15 0.18 0.39 0.21 0.18 0.21 0.15 0.10 0.08 0.05 0.02 0.01 0.00 0.00 0.00 0.00 0.00 0.00 0.00 0.00 0.00 0.00
0.00 0.00 0.00 0.00 0.00 0.00 0.00 0.00 0.00 0.00 0.00 0.00 0.00 0.00 0.00 0.00 0.00 0.01 0.00 0.00 0.03 0.21 0.16 0.17 0.40 0.21 0.10 0.10 0.07 0.08 0.06 0.04 0.03 0.02 0.00 0.00 0.00 0.00 0.00 0.00 0.00 0.00 0.00
0.00 0.00 0.00 0.00 0.00 0.00 0.00 0.00 0.00 0.00 0.00 0.00 0.00 0.00 0.00 0.00 0.00 0.00 0.00 0.02 0.02 0.02 0.14 0.19 0.22 0.34 0.20 0.08 0.03 0.02 0.03 0.02 0.02 0.01 0.00 0.00 0.00 0.00 0.00 0.00 0.00 0.00 0.00
0.00 0.00 0.00 0.00 0.00 0.00 0.00 0.00 0.00 0.00 0.00 0.00 0.01 0.01 0.00 0.02 0.01 0.00 0.00 0.15 0.28 0.02 0.01 0.11 0.24 0.24 0.34 0.17 0.07 0.04 0.03 0.02 0.02 0.01 0.00 0.00 0.00 0.00 0.00 0.00 0.00 0.00 0.00
0.01 0.00 0.00 0.00 0.00 0.00 0.00 0.00 0.00 0.00 0.02 0.01 0.01 0.02 0.01 0.03 0.06 0.01 0.01 0.13 0.49 0.21 0.01 0.02 0.07 0.24 0.22 0.38 0.20 0.11 0.12 0.05 0.02 0.00 0.00 0.00 0.00 0.00 0.00 0.00 0.00 0.00 0.00
0.00 0.00 0.00 0.00 0.00 0.00 0.00 0.00 0.00 0.01 0.03 0.02 0.04 0.07 0.06 0.03 0.05 0.07 0.03 0.14 0.13 0.40 0.12 0.02 0.02 0.02 0.15 0.17 0.30 0.25 0.17 0.19 0.15 0.05 0.01 0.00 0.00 0.00 0.00 0.00 0.00 0.00 0.00
0.00 0.00 0.00 0.00 0.00 0.00 0.00 0.00 0.00 0.01 0.04 0.10 0.06 0.10 0.18 0.20 0.15 0.08 0.12 0.12 0.10 0.18 0.46 0.19 0.04 0.03 0.02 0.11 0.18 0.16 0.23 0.27 0.28 0.29 0.18 0.07 0.01 0.01 0.00 0.00 0.00 0.00 0.00
0.02 0.00 0.00 0.00 0.00 0.00 0.01 0.01 0.01 0.00 0.03 0.23 0.17 0.27 0.31 0.37 0.41 0.27 0.19 0.18 0.16 0.14 0.27 0.50 0.30 0.11 0.07 0.04 0.09 0.13 0.08 0.17 0.26 0.25 0.26 0.20 0.13 0.08 0.05 0.03 0.01 0.00 0.00
0.09 0.01 0.00 0.02 0.04 0.03 0.04 0.12 0.11 0.06 0.06 0.26 0.38 0.23 0.22 0.23 0.31 0.65 0.42 0.31 0.16 0.15 0.17 0.24 0.41 0.35 0.16 0.09 0.06 0.06 0.08 0.09 0.09 0.14 0.17 0.16 0.11 0.11 0.09 0.08 0.08 0.02 0.00
0.18 0.06 0.03 0.11 0.19 0.20 0.17 0.32 0.55 0.36 0.16 0.20 0.17 0.21 0.19 0.05 0.13 0.28 0.61 0.57 0.27 0.18 0.15 0.15 0.21 0.26 0.34 0.22 0.12 0.08 0.06 0.05 0.09 0.10 0.11 0.10 0.11 0.14 0.11 0.10 0.08 0.04 0.00
0.22 0.24 0.28 0.40 0.60 0.77 0.55 0.41 0.59 0.64 0.20 0.11 0.16 0.23 0.21 0.08 0.06 0.15 0.30 0.54 0.68 0.36 0.24 0.16 0.14 0.17 0.20 0.26 0.21 0.12 0.10 0.09 0.06 0.06 0.10 0.10 0.17 0.19 0.16 0.15 0.11 0.07 0.03
0.70 0.77 0.87 1.02 1.20 1.42 1.04 0.84 0.86 0.81 0.50 0.73 0.77 0.38 0.44 0.36 0.11 0.05 0.11 0.23 0.43 0.70 0.34 0.27 0.14 0.13 0.20 0.21 0.24 0.24 0.20 0.19 0.15 0.12 0.11 0.14 0.16 0.15 0.16 0.18 0.17 0.14 0.08
1.17 1.23 1.24 1.45 1.56 1.40 1.46 1.56 1.70 1.80 1.89 1.46 0.83 0.76 0.74 0.51 0.38 0.23 0.11 0.11 0.15 0.47 0.59 0.36 0.28 0.16 0.19 0.33 0.26 0.30 0.36 0.31 0.25 0.18 0.18 0.15 0.15 0.14 0.17 0.19 0.18 0.19 0.16
0.87 0.94 1.01 1.10 1.39 1.69 2.04 1.96 1.90 1.87 1.61 1.28 1.48 1.38 0.86 0.72 0.47 0.44 0.31 0.29 0.29 0.43 1.07 0.59 0.50 0.23 0.16 0.20 0.28 0.29 0.36 0.48 0.55 0.47 0.34 0.32 0.35 0.33 0.31 0.26 0.24 0.25 0.23
0.59 0.46 0.41 0.49 0.65 0.75 0.80 0.87 1.25 1.51 1.48 1.57 1.57 1.40 1.33 0.95 0.74 0.56 0.62 0.71 0.88 0.93 1.52 1.61 1.20 0.81 0.54 0.39 0.28 0.33 0.36 0.48 0.57 0.64 0.71 0.70 0.61 0.68 0.79 0.87 0.80 0.67 0.51
0.10 0.14 0.16 0.12 0.16 0.22 0.14 0.15 0.15 0.19 0.43 0.76 1.05 1.16 1.22 1.19 1.23 0.94 1.00 1.18 1.45 1.65 1.70 1.99 1.93 1.08 0.95 0.86 0.63 0.61 0.55 0.48 0.52 0.52 0.53 0.61 0.63 0.61 0.66 0.71 0.74 0.66 0.52
0.00 0.00 0.00 0.00 0.00 0.00 0.00 0.00 0.00 0.00 0.00 0.00 0.07 0.20 0.32 0.43 0.58 0.68 0.82 0.96 1.00 1.09 1.08 1.01 0.99 0.77 0.85 0.82 0.69 0.82 0.89 0.70 0.63 0.60 0.54 0.48 0.50 0.54 0.53 0.52 0.47 0.37 0.29
0.00 0.00 0.00 0.00 0.00 0.00 0.00 0.00 0.00 0.00 0.00 0.00 0.00 0.00 0.01 0.05 0.06 0.08 0.10 0.09 0.10 0.15 0.17 0.16 0.11 0.16 0.21 0.31 0.34 0.30 0.30 0.45 0.53 0.58 0.53 0.53 0.47 0.54 0.50 0.42 0.35 0.30 0.24
0.00 0.00 0.00 0.00 0.00 0.00 0.00 0.00 0.00 0.00 0.00 0.00 0.00 0.00 0.00 0.00 0.00 0.00 0.00 0.00 0.01 0.02 0.03 0.03 0.01 0.00 0.03 0.05 0.09 0.11 0.06 0.09 0.12 0.17 0.24 0.31 0.47 0.43 0.47 0.51 0.47 0.45 0.45
0.00 0.00 0.00 0.00 0.00 0.00 0.00 0.00 0.00 0.00 0.00 0.00 0.00 0.00 0.00 0.00 0.00 0.00 0.00 0.00 0.00 0.00 0.00 0.00 0.00 0.00 0.00 0.01 0.03 0.04 0.04 0.10 0.06 0.08 0.11 0.20 0.37 0.27 0.26 0.29 0.32 0.34 0.31
0.00 0.00 0.00 0.00 0.00 0.00 0.00 0.00 0.00 0.00 0.00 0.00 0.00 0.00 0.00 0.00 0.00 0.00 0.00 0.00 0.00 0.00 0.00 0.00 0.00 0.00 0.00 0.00 0.00 0.00 0.00 0.01 0.02 0.02 0.05 0.12 0.19 0.22 0.28 0.34 0.32 0.30 0.26
0.00 0.00 0.00 0.00 0.00 0.00 0.00 0.00 0.00 0.00 0.00 0.00 0.00 0.00 0.00 0.00 0.00 0.00 0.00 0.00 0.00 0.00 0.00 0.00 0.00 0.00 0.00 0.00 0.00 0.00 0.00 0.00 0.01 0.02 0.04 0.07 0.07 0.11 0.16 0.21 0.21 0.16 0.17
0.00 0.00 0.00 0.00 0.00 0.00 0.00 0.00 0.00 0.00 0.00 0.00 0.00 0.00 0.00 0.00 0.00 0.00 0.00 0.00 0.00 0.00 0.00 0.00 0.00 0.00 0.00 0.00 0.00 0.00 0.00 0.00 0.00 0.02 0.07 0.12 0.10 0.09 0.07 0.05 0.10 0.16 0.23
0.00 0.00 0.00 0.00 0.00 0.00 0.00 0.00 0.00 0.00 0.00 0.00 0.00 0.00 0.00 0.00 0.00 0.00 0.00 0.00 0.00 0.00 0.01 0.01 0.01 0.01 0.01 0.01 0.00 0.00 0.01 0.01 0.02 0.06 0.04 0.04 0.09 0.16 0.25 0.34 0.37 0.34 0.31